DW8305 Weather Reports


time (UTC)temp
C
wind
direction
speed
KPH
gust
KPH
rain 1hr
cm
rain 24hr
cm
rain mn
cm
humidity
%
barometer
mb
20260510202935 13 315 1.6 3.2 0.00 0.00 0.00 78 1009.5
20260510201936 13 270 4.8 8.0 0.00 0.00 0.00 75 1009.6
20260510200937 14 338 3.2 4.8 0.00 0.00 0.00 71 1009.5
20260510195917 15 23 1.6 3.2 0.00 0.00 0.00 70 1009.5
20260510194917 15 0 3.2 6.4 0.00 0.00 0.00 70 1009.5
20260510193917 15 338 1.6 3.2 0.00 0.00 0.00 69 1009.5
20260510192918 15 315 3.2 3.2 0.00 0.00 0.00 69 1009.5
20260510191917 16 0 3.2 4.8 0.00 0.00 0.00 67 1009.5
20260510190915 16 338 3.2 6.4 0.00 0.00 0.00 66 1009.5
20260510185918 16 23 1.6 3.2 0.00 0.00 0.00 65 1009.4
20260510184935 16 315 1.6 4.8 0.00 0.00 0.00 65 1009.4
20260510183937 17 0.0 1.6 0.00 0.00 0.00 65 1009.4
20260510182915 17 0.0 1.6 0.00 0.00 0.00 64 1009.4
20260510181918 17 315 3.2 3.2 0.00 0.00 0.00 62 1009.4
20260510180917 18 0 4.8 9.7 0.00 0.00 0.00 61 1009.4
20260510175918 18 315 1.6 8.0 0.00 0.00 0.00 60 1009.4
20260510174918 18 338 8.0 14.5 0.00 0.00 0.00 59 1009.4
20260510173918 18 338 3.2 6.4 0.00 0.00 0.00 59 1009.4
20260510172917 19 338 8.0 11.3 0.00 0.00 0.00 57 1009.4
20260510171917 20 338 4.8 8.0 0.00 0.00 0.00 56 1009.5
20260510170917 20 248 3.2 8.0 0.00 0.00 0.00 54 1009.5
20260510165917 20 270 1.6 3.2 0.00 0.00 0.00 54 1009.6
20260510164917 20 270 4.8 8.0 0.00 0.00 0.00 51 1009.7
20260510163918 20 270 4.8 6.4 0.00 0.00 0.00 52 1009.8
20260510162917 20 315 3.2 8.0 0.00 0.00 0.00 52 1009.9
20260510161916 20 270 3.2 4.8 0.00 0.00 0.00 51 1009.9
20260510160917 20 270 4.8 4.8 0.00 0.00 0.00 50 1010.0
20260510155915 20 248 3.2 6.4 0.00 0.00 0.00 50 1010.1
20260510154918 20 270 1.6 1.6 0.00 0.00 0.00 48 1010.2
20260510153936 20 270 3.2 6.4 0.00 0.00 0.00 49 1010.3
20260510152917 20 225 1.6 3.2 0.00 0.00 0.00 49 1010.4
20260510151917 20 293 1.6 3.2 0.00 0.00 0.00 51 1010.5
20260510150917 20 270 1.6 3.2 0.00 0.00 0.00 50 1010.6
20260510145918 20 225 4.8 8.0 0.00 0.00 0.00 51 1010.7
20260510144917 20 293 3.2 3.2 0.00 0.00 0.00 50 1010.8
20260510143917 20 293 6.4 9.7 0.00 0.00 0.00 52 1011.0
20260510142917 20 248 4.8 6.4 0.00 0.00 0.00 53 1011.1
20260510141934 20 293 3.2 4.8 0.00 0.00 0.00 53 1011.2
20260510140917 20 270 3.2 4.8 0.00 0.00 0.00 53 1011.4
20260510135917 20 270 4.8 8.0 0.00 0.00 0.00 53 1011.6
20260510134952 22 225 3.2 4.8 0.00 0.00 0.00 52 1011.7
20260510133917 21 113 1.6 4.8 0.00 0.00 0.00 52 1011.8
20260510132916 21 135 1.6 1.6 0.00 0.00 0.00 52 1011.9
20260510131918 21 158 6.4 11.3 0.00 0.00 0.00 53 1012.0
20260510130915 21 293 6.4 9.7 0.00 0.00 0.00 52 1012.2
20260510125917 20 135 4.8 8.0 0.00 0.00 0.00 54 1012.3
20260510124917 21 248 3.2 6.4 0.00 0.00 0.00 53 1012.4
20260510123918 20 0.0 1.6 0.00 0.00 0.00 54 1012.5
20260510122917 20 135 1.6 3.2 0.00 0.00 0.00 54 1012.6
20260510121917 20 0.0 3.2 0.00 0.00 0.00 55 1012.7
20260510120917 20 135 3.2 4.8 0.00 0.00 0.00 56 1012.8
20260510115917 20 225 1.6 3.2 0.00 0.00 0.00 55 1013.1
20260510114937 20 158 1.6 3.2 0.00 0.00 0.00 56 1013.2
20260510113915 20 113 1.6 4.8 0.00 0.00 0.00 56 1013.2
20260510112917 20 0.0 1.6 0.00 0.00 0.00 54 1013.4
20260510111917 20 113 1.6 3.2 0.00 0.00 0.00 55 1013.5
20260510110917 20 113 1.6 3.2 0.00 0.00 0.00 54 1013.6
20260510105937 19 225 1.6 3.2 0.00 0.00 0.00 56 1013.7
20260510104917 19 90 8.0 9.7 0.00 0.00 0.00 55 1013.8
20260510103917 19 90 3.2 6.4 0.00 0.00 0.00 56 1013.9
20260510102917 18 90 3.2 4.8 0.00 0.00 0.00 57 1014.0
20260510101917 18 113 6.4 8.0 0.00 0.00 0.00 59 1014.1
20260510100917 18 0.0 1.6 0.00 0.00 0.00 61 1014.2
20260510095917 17 45 1.6 4.8 0.00 0.00 0.00 62 1014.2
20260510094917 17 90 6.4 9.7 0.00 0.00 0.00 62 1014.4
20260510093917 17 90 4.8 8.0 0.00 0.00 0.00 64 1014.4
20260510092937 17 0.0 1.6 0.00 0.00 0.00 64 1014.6
20260510091916 17 0.0 1.6 0.00 0.00 0.00 67 1014.6
20260510090917 16 0.0 1.6 0.00 0.00 0.00 69 1014.7
20260510085917 16 158 4.8 6.4 0.00 0.00 0.00 68 1014.7
20260510084917 16 68 1.6 4.8 0.00 0.00 0.00 71 1014.7
20260510083917 16 90 1.6 3.2 0.00 0.00 0.00 71 1014.8
20260510082917 15 113 1.6 3.2 0.00 0.00 0.00 73 1014.7
20260510081917 15 0.0 0.0 0.00 0.00 0.00 75 1014.9
20260510080917 15 113 3.2 6.4 0.00 0.00 0.00 75 1014.9
20260510075957 14 0.0 1.6 0.00 0.00 0.00 77 1015.1
20260510074937 13 90 1.6 1.6 0.00 0.00 0.00 80 1015.1
20260510073917 12 113 1.6 3.2 0.00 0.00 0.00 80 1015.2
20260510072917 12 68 3.2 3.2 0.00 0.00 0.00 82 1015.3
20260510071917 12 0.0 1.6 0.00 0.00 0.00 83 1015.3
20260510070917 11 113 3.2 3.2 0.00 0.00 0.00 84 1015.4
20260510065917 11 113 1.6 3.2 0.00 0.00 0.00 84 1015.4
20260510064917 11 90 1.6 3.2 0.00 0.00 0.00 86 1015.5
20260510063937 11 135 3.2 4.8 0.00 0.00 0.00 86 1015.5
20260510062917 10 0.0 1.6 0.00 0.00 0.00 87 1015.6
20260510061917 10 90 1.6 3.2 0.00 0.00 0.00 87 1015.6
20260510060917 10 135 3.2 4.8 0.00 0.00 0.00 87 1015.7
20260510055917 10 135 4.8 6.4 0.00 0.00 0.00 87 1015.6
20260510054957 9 113 3.2 4.8 0.00 0.00 0.00 88 1015.8
20260510053917 9 135 3.2 4.8 0.00 0.00 0.00 89 1015.8
20260510053037 8 135 1.6 3.2 0.00 0.00 0.00 91 1015.8
20260510051917 8 0.0 1.6 0.00 0.00 0.00 91 1015.8
20260510050917 7 90 1.6 3.2 0.00 0.00 0.00 91 1015.9
20260510045917 7 0.0 1.6 0.00 0.00 0.00 92 1016.0
20260510044917 7 0.0 0.0 0.00 0.00 0.00 92 1015.9
20260510043917 7 68 1.6 1.6 0.00 0.00 0.00 92 1016.0
20260510042917 7 0.0 1.6 0.00 0.00 0.00 92 1016.0
20260510041917 7 0.0 0.0 0.00 0.00 0.00 92 1016.1
20260510040917 7 0.0 1.6 0.00 0.00 0.00 92 1016.1
20260510035917 7 68 1.6 3.2 0.00 0.00 0.00 92 1016.1
20260510034917 7 0.0 0.0 0.00 0.00 0.00 92 1016.2
20260510033917 7 0.0 1.6 0.00 0.00 0.00 92 1016.2
20260510032917 7 0.0 1.6 0.00 0.00 0.00 91 1016.1
20260510031917 7 0.0 1.6 0.00 0.00 0.00 91 1016.2
20260510030917 7 0.0 1.6 0.00 0.00 0.00 91 1016.3
20260510025937 7 0.0 1.6 0.00 0.00 0.00 90 1016.4
20260510024917 7 0.0 1.6 0.00 0.00 0.00 90 1016.5
20260510023917 8 0.0 0.0 0.00 0.00 0.00 90 1016.6
20260510022917 8 0.0 1.6 0.00 0.00 0.00 90 1016.6
20260510021917 8 0.0 1.6 0.00 0.00 0.00 90 1016.7
20260510020917 8 113 1.6 3.2 0.00 0.00 0.00 90 1016.8
20260510015917 8 0.0 1.6 0.00 0.00 0.00 90 1016.8
20260510014917 8 135 1.6 1.6 0.00 0.00 0.00 90 1016.8
20260510013917 8 0.0 0.0 0.00 0.00 0.00 90 1016.8
20260510012917 8 0.0 1.6 0.00 0.00 0.00 90 1016.9
20260510011917 8 113 1.6 1.6 0.00 0.00 0.00 90 1017.0
20260510010937 8 0.0 1.6 0.00 0.00 0.00 90 1017.2
20260510005917 8 0.0 0.0 0.00 0.00 0.00 90 1017.2
20260510004917 8 0.0 1.6 0.00 0.00 0.00 89 1017.3
20260510003917 8 0.0 0.0 0.00 0.00 0.00 89 1017.3
20260510002917 8 0.0 1.6 0.00 0.00 0.00 89 1017.5
20260510001917 8 113 1.6 1.6 0.00 0.00 0.00 89 1017.5
20260510000917 8 0.0 1.6 0.00 0.00 0.00 89 1017.8
20260509235917 8 0.0 1.6 0.00 0.00 0.00 89 1017.9
20260509234917 8 0.0 1.6 0.00 0.00 0.00 89 1017.9
20260509233937 8 0.0 1.6 0.00 0.00 0.00 88 1017.9
20260509232917 8 135 3.2 4.8 0.00 0.00 0.00 88 1017.9
20260509231917 8 135 1.6 3.2 0.00 0.00 0.00 88 1017.9
20260509230917 8 0.0 1.6 0.00 0.00 0.00 87 1018.1
20260509225917 8 0.0 1.6 0.00 0.00 0.00 87 1018.2
20260509224937 9 158 1.6 3.2 0.00 0.00 0.00 87 1018.3
20260509223917 9 0.0 1.6 0.00 0.00 0.00 86 1018.5
20260509222917 9 90 1.6 1.6 0.00 0.00 0.00 85 1018.7
20260509221917 10 0.0 1.6 0.00 0.00 0.00 84 1018.9
20260509220917 10 0.0 0.0 0.00 0.00 0.00 84 1018.8
20260509215915 10 68 3.2 4.8 0.00 0.00 0.00 83 1018.8
20260509214915 10 90 3.2 3.2 0.00 0.00 0.00 82 1018.9
20260509213916 11 0.0 1.6 0.00 0.00 0.00 82 1019.0
20260509212915 11 90 1.6 3.2 0.00 0.00 0.00 81 1019.0
20260509211936 11 68 3.2 6.4 0.00 0.00 0.00 81 1018.9
20260509210915 11 68 1.6 3.2 0.00 0.00 0.00 80 1019.0
20260509205915 11 68 3.2 4.8 0.00 0.00 0.00 79 1019.1
20260509204915 11 90 3.2 3.2 0.00 0.00 0.00 79 1019.2
20260509203915 12 0.0 1.6 0.00 0.00 0.00 79 1019.2